This is the latest recevied weather packets stored in our database for station/object MB7UUE. If no packets are shown the sender has not sent any weather packets the latest 10 day(s).
| Time | Temp. | Humidity | Pressure | Rain* | Wind** | Luminosity | Snow |
|---|---|---|---|---|---|---|---|
| 1787488565 | 22.22° C | 36% | 1024.6 hPa | 0 mm | - | - | - |
| 1787487423 | 22.22° C | 36% | 1024.6 hPa | 0 mm | - | - | - |
| 1787486284 | 21.67° C | 37% | 1024.6 hPa | 0 mm | - | - | - |
| 1787485143 | 21.11° C | 40% | 1024.7 hPa | 0 mm | - | - | - |
| 1787484005 | 21.11° C | 41% | 1024.8 hPa | 0 mm | - | - | - |
| 1787482864 | 21.67° C | 42% | 1024.7 hPa | 0 mm | - | - | - |
| 1787481724 | 21.11° C | 50% | 1024.8 hPa | 0 mm | - | - | - |
| 1787480585 | 20° C | 50% | 1025 hPa | 0 mm | - | - | - |
| 1787479444 | 20° C | 57% | 1025.1 hPa | 0 mm | - | - | - |
| 1787478304 | 19.44° C | 57% | 1025.2 hPa | 0 mm | - | - | - |
| 1787477165 | 19.44° C | 59% | 1025.3 hPa | 0 mm | - | - | - |
| 1787476024 | 18.33° C | 62% | 1025.4 hPa | 0 mm | - | - | - |
| 1787474885 | 18.33° C | 65% | 1025.5 hPa | 0 mm | - | - | - |
| 1787473744 | 17.22° C | 68% | 1025.5 hPa | 0 mm | - | - | - |
| 1787472605 | 16.11° C | 67% | 1025.7 hPa | 0 mm | - | - | - |
| 1787471465 | 15.56° C | 72% | 1025.7 hPa | 0 mm | - | - | - |
| 1787470324 | 15° C | 72% | 1025.8 hPa | 0 mm | - | - | - |
| 1787469186 | 13.89° C | 79% | 1025.8 hPa | 0 mm | - | - | - |
| 1787468045 | 13.33° C | 79% | 1025.6 hPa | 0 mm | - | - | - |
| 1787466904 | 12.78° C | 83% | 1025.7 hPa | 0 mm | - | - | - |
| 1787465764 | 11.67° C | 83% | 1025.5 hPa | 0 mm | - | - | - |
| 1787464625 | 11.11° C | 84% | 1025.5 hPa | 0 mm | - | - | - |
| 1787464168 | 10.56° C | 85% | 1025.5 hPa | 0 mm | - | - | - |
| 1787464140 | 10.56° C | 85% | 1025.5 hPa | 0 mm | - | - | - |
| 1787463027 | 10.56° C | 84% | 1025.3 hPa | 0 mm | - | - | - |
* Rain latest hour (hover to see other rain measurements)
** Current wind speed in m/s (hover to see current wind gust speed)